Theta_e
320 319 318 318 318 318 318 319 321 320 320 321 320 322 321 322 322 322 322 322 323 323 323 323 321 320 320 319 317 315 314 312
320 318 317 317 317 317 317 317 317 318 319 320 319 321 317 316 317 318 321 321 323 324 324 324 323 322 321 320 319 316 313 311
318 317 316 316 316 316 316 317 318 318 317 317 318 317 316 316 315 315 317 318 319 321 322 322 323 322 321 320 318 315 313 311
320 317 315 315 316 316 316 316 317 317 317 317 317 317 315 314 315 315 315 315 315 318 321 322 323 323 323 320 318 316 315 312
320 318 316 314 315 316 316 316 316 316 316 316 316 316 315 314 313 313 313 314 315 319 322 323 324 324 323 322 319 318 317 313
321 318 318 315 315 316 315 316 316 316 315 315 315 314 314 314 314 314 315 314 315 318 320 325 325 325 324 324 320 318 317 314
323 320 318 316 315 315 315 314 315 315 314 314 314 314 314 314 315 316 316 316 316 318 319 320 322 324 325 324 323 320 319 315
323 321 319 317 315 314 314 314 314 314 314 314 314 314 314 314 315 316 317 317 318 318 319 319 321 324 324 323 323 321 320 318
322 322 321 319 316 313 314 314 314 314 314 315 315 315 314 314 315 317 318 318 319 319 320 319 320 324 324 323 322 321 320 318
323 322 322 320 318 315 313 314 313 314 314 316 315 315 315 316 316 317 319 319 321 321 322 322 322 323 319 320 323 319 320 319
323 323 322 322 320 317 315 314 314 314 314 314 318 318 317 316 318 320 321 321 321 320 322 324 324 322 324 324 322 321 318 316
321 323 322 323 322 320 317 316 315 315 316 317 318 318 319 319 320 320 322 323 322 322 322 324 324 323 323 320 319 318 315 312
321 320 322 322 322 323 321 318 318 318 319 319 320 320 320 321 321 322 323 323 324 323 323 323 318 317 319 319 318 314 312 311
316 318 318 321 323 323 323 323 322 321 321 321 322 322 323 323 323 323 323 323 323 324 323 324 320 315 317 317 314 313 313 312
314 315 318 320 321 322 323 323 323 323 323 323 323 324 324 324 324 324 323 323 323 324 322 319 318 315 316 313 313 312 310 309
316 316 316 316 319 320 321 322 324 324 324 325 324 324 325 325 325 326 324 323 323 323 322 319 318 316 314 312 312 310 307 305
314 316 316 318 320 322 322 321 322 323 324 325 325 325 325 326 326 326 325 323 322 321 318 317 313 313 314 311 309 306 304 303
312 314 318 319 323 325 326 327 325 324 324 324 323 323 323 323 322 321 320 317 316 315 314 313 312 311 309 308 306 305 303 302
311 311 316 321 325 325 325 325 327 326 324 324 323 322 320 318 317 315 314 314 314 313 311 311 310 307 306 305 303 302 301 300
Wind_Speed
13 13 12 15 19 24 26 28 33 31 28 32 27 27 26 25 25 23 22 24 16 18 20 18 20 21 22 24 22 21 21 19
18 14 16 17 20 21 22 27 31 29 27 31 26 31 24 22 24 24 22 18 15 18 19 18 21 25 26 25 26 24 21 20
11 17 19 19 24 23 23 22 29 31 30 29 23 28 27 24 23 27 22 18 15 15 18 21 22 25 27 27 27 25 22 19
11 16 20 24 25 28 25 26 26 27 28 28 28 26 28 28 30 29 28 24 19 18 23 27 26 27 29 30 31 30 25 22
10 13 19 26 30 31 30 31 30 32 30 31 29 25 24 26 29 33 34 32 28 24 24 30 28 29 30 33 34 34 30 24
16 16 24 26 28 32 31 32 35 37 35 32 31 28 28 31 31 33 36 41 35 28 30 28 31 33 31 34 36 36 32 28
15 18 19 21 24 28 32 31 32 36 38 41 37 33 31 30 35 36 35 37 39 35 33 34 36 34 35 37 38 36 36 35
14 14 16 22 26 30 31 32 34 36 38 37 40 39 41 35 35 37 37 39 39 42 38 38 37 38 35 37 38 38 38 38
17 18 22 25 29 32 33 34 36 40 39 38 37 38 36 40 36 32 35 40 40 42 40 38 40 36 27 35 36 36 37 36
19 18 26 27 29 34 38 38 39 38 43 40 39 37 39 35 34 31 35 40 41 38 36 38 38 31 32 44 32 33 39 38
18 17 25 31 34 37 35 38 39 42 36 37 35 34 36 37 32 33 38 40 39 39 38 31 27 27 40 43 41 33 35 39
15 18 28 35 33 32 36 35 38 35 38 37 34 36 33 32 36 39 41 36 34 32 30 21 21 27 35 32 33 32 33 35
13 15 23 27 32 33 37 40 38 42 38 38 40 38 38 39 43 48 41 40 35 33 27 27 37 32 31 30 32 32 33 30
10 8 12 21 29 31 34 37 42 42 38 39 38 40 42 47 50 42 41 38 36 37 33 36 39 34 34 32 33 30 27 25
9 11 14 20 26 32 33 36 41 37 38 38 39 40 46 44 42 38 37 39 41 43 39 38 36 31 30 29 28 24 20 19
7 7 10 10 18 24 29 35 33 32 33 35 40 39 35 34 34 37 34 33 36 38 39 35 30 30 28 27 23 21 19 19
11 9 8 9 17 24 27 29 32 35 34 34 30 32 33 33 32 33 30 31 31 31 30 29 28 23 22 20 19 19 19 19
11 11 15 12 21 28 26 27 26 30 28 26 30 29 28 27 26 26 27 29 28 24 24 23 20 19 19 19 18 18 18 18
10 10 10 20 22 22 21 20 23 25 22 22 23 24 24 24 26 26 26 24 22 20 18 17 18 18 19 19 18 18 19 19
Wind_Direction
184 176 175 175 181 177 182 179 188 186 185 166 171 175 178 178 173 182 179 180 173 191 199 193 197 203 207 204 204 207 211 206
181 184 185 179 176 176 174 175 184 189 183 183 185 184 208 197 187 185 185 190 186 201 207 206 208 216 213 212 212 210 209 207
174 182 189 187 182 183 181 177 177 183 190 195 198 209 220 215 207 207 210 204 198 226 229 227 224 221 219 215 209 207 214 207
187 190 193 193 192 192 186 187 187 186 189 195 206 220 225 225 222 222 232 221 227 250 246 236 230 228 226 219 214 214 210 208
192 189 198 192 198 199 198 193 194 196 199 203 210 219 224 231 234 235 245 238 239 252 251 236 232 237 234 229 222 223 222 209
191 195 203 200 195 198 200 201 205 205 208 210 213 215 222 230 236 239 242 237 236 250 246 242 242 241 241 238 231 227 225 223
206 192 192 200 198 197 199 199 203 209 209 211 212 213 215 219 224 231 234 232 237 248 250 246 247 249 245 243 239 234 231 229
200 190 185 187 194 199 196 196 202 207 210 212 215 216 219 220 222 226 230 236 243 247 248 246 246 249 247 249 244 239 235 232
199 201 197 195 193 198 199 203 208 208 209 214 216 220 223 227 228 231 235 239 245 250 255 254 246 241 258 265 253 248 242 237
199 201 201 201 199 201 202 203 210 210 211 212 216 219 223 228 231 240 246 249 251 253 260 259 248 239 245 253 249 256 243 236
198 198 204 205 208 208 208 211 211 211 212 216 218 220 228 233 235 243 249 252 253 258 260 255 249 265 249 249 240 244 241 235
200 195 202 207 209 206 209 214 218 217 217 216 218 223 224 230 236 241 244 246 249 251 249 234 255 261 252 241 248 248 237 229
203 200 197 201 206 204 204 212 215 216 215 215 213 215 216 223 232 237 235 235 246 242 233 239 242 257 260 251 244 235 225 222
199 181 195 201 203 205 206 209 217 216 213 213 211 210 212 218 229 225 225 225 226 216 241 246 241 248 253 248 236 228 224 226
202 199 204 206 203 204 205 211 217 214 211 211 210 209 214 221 226 226 220 218 213 219 225 232 238 240 246 240 221 222 225 224
211 219 199 196 200 205 208 216 217 209 204 207 211 212 212 215 216 223 220 216 214 216 226 228 239 234 225 219 218 213 210 207
214 204 226 185 198 205 209 212 213 207 200 205 200 202 202 209 215 213 216 214 213 216 216 216 208 207 216 216 208 202 202 200
215 194 202 204 206 206 203 209 202 196 196 196 202 205 206 208 208 203 205 201 195 194 192 191 193 199 203 201 200 199 195 190
230 221 187 201 200 198 191 186 175 175 179 184 189 190 192 192 190 190 191 182 174 175 179 188 194 195 190 188 189 186 183 180